DECAYED

STARLINK-1610, 46163 (Decayed)

Orbit data source: Space-Track

STARLINK-1610, 46163 was a payload satellite owned by SpaceX/Seattle (US) in LEO that was launched on Tue, 18 Aug 2020 UTC via an FALCON 9 launch vehicle from the Air Force Eastern Test Range (AFETR). Payload-class satellites include a variety of spacecraft equipped with specific instruments for various scientific and technological missions. These include communications satellites like Starlink; space stations such as the ISS; scientific satellites like the Hubble; Earth observation satellites from companies like Planet Labs, Umbra, and HawkEye 360; GPS; miniature CubeSats for education and research; and military/defense satellites.

Not visible in the next 10 days
Identifier
46163, 2020-057AY
Orbit
Decayed
Country
Flag of USUS
Related business
Manufacturer
SpaceX/Seattle
Mission
Decayed Commercial Communications
Bus & Motor
STARLINK, Unknown motor
Mass
260 kg wet, ~248 kg dry
Launch date (UTC)
2020-08-18 (5 years ago)
Launch vehicle
FALCON 9
Launch site
Air Force Eastern Test Range (AFETR)
Object type
Payload
Rocket body
Debris
Shape & HBR
Box + 1 Pan, 10.1 m
Radar Cross Section
13.562 m², Large (>1 m²)

Expand to show TLE details & history
Last TLE update: 9 months ago

TLE from 9 months ago
0 STARLINK-1610
1 46163U 20057AY  25128.26392933  .18812154  12526-4  49294-3 0  9990
2 46163  53.0127 171.6975 0006584 276.5108 130.4158 16.45378281261756
Epoch: 2025-05-08T06:20Z
TLE epoch observation values (Epoch: 2025-05-08T06:20:03.494Z)
Latitude
35.85622°
Longitude
-116.8875°
Altitude
157.041 km
Speed
7.815 km/s
True Right ascension
13h 37m 51s
True Declination
35° 40' 41"
Sunlit
Object was in full shadow at epoch
Visualization orbit readout
Latitude
Unknown
Longitude
Unknown
Altitude
Unknown
Speed
Unknown
Apparent Right ascension
Unknown
Apparent Declination
Unknown
Sunlit
N/A
Visualization observer readout
Local Sidereal Time
00:33:30
Azimuth
Unknown
Elevation
Unknown
Doppler factor
Unknown
Orbital elements
Apogee altitude
156.128 km
Perigee altitude
147.529 km
Semi-major axis
6,529.965 km
Eccentricity
0.00066
Inclination
53.0127°
RAAN
171.6975°
Arg. of periapsis
276.5108°
True anomaly
130.47321°
Mean anomaly
130.4158°
Eccentric anomaly
130.44451°
Mean motion
4.11317 °/min
Orbital period
87.52 mins
BSTAR
0.00049294
Loading maneuver chart data...
Computing Atmospheric mass density...

Documentation

Showing up to 5 results
|